Location: Izdebno
(52.6670°N, 16.2170°E)
Time: 21:38:24
(UTC+02:00)

Vanguard 2 - Pass Details

Date: 02 October 2023
Orbit: 552 x 2910 km, 32.9° (Epoch: 07 October)

Event Time Altitude Azimuth Distance (km) Brightness Sun altitude
Rises 21:57:08 0° 259° (WSW) 6,327 12.7 -30.2°
Reaches altitude 10° 22:02:52 10° 247° (WSW) 4,955 11.9 -30.8°
Maximum altitude 22:12:07 23° 204° (SSW) 3,283 10.5 -31.9°
Enters shadow 22:12:52 22° 199° (SSW) 3,228 10.4 -31.9°
